Location: Dumpton Point
(51.3500°N, 1.4433°E)
Time: 04:52:18
(UTC+00:00)

Altair - Pass Details

Date: 04 October 2022
Orbit: 1501 x 1682 km, 47.2° (Epoch: 26 November)

Event Time Altitude Azimuth Distance (km) Brightness Sun altitude
Rises 02:06:41 0° 169° (SSE) 4,735 - -34.3°
Exits shadow 02:10:28 - 152° (SSE) 4,056 9.5 -33.8°
Reaches altitude 10° 02:12:41 10° 140° (SE) 3,804 9.5 -33.6°
Maximum altitude 02:15:36 12° 122° (ESE) 3,692 9.6 -33.3°
Drops below altitude 10° 02:18:33 10° 104° (ESE) 3,854 9.9 -32.9°
Sets 02:24:42 0° 76° (ENE) 4,887 11.0 -32.2°
